Location: �chenoz-la-M�line
(47.6009°N, 6.1354°E)
Time: 12:20:11
(UTC+00:00)

Cosmos 2228 - Pass Details

Date: 27 January 2021
Orbit: 589 x 617 km, 82.5° (Epoch: 02 March)

Event Time Altitude Azimuth Distance (km) Brightness Sun altitude
Rises 05:11:08 0° 177° (S) 2,816 6.6 -19.6°
Reaches altitude 10° 05:13:21 10° 173° (S) 1,917 5.7 -19.3°
Maximum altitude 05:17:29 57° 95° (E) 700 3.6 -18.6°
Drops below altitude 10° 05:21:40 10° 17° (NNE) 1,929 5.7 -17.9°
Sets 05:23:54 0° 13° (NNE) 2,836 6.5 -17.5°
